Seattle Boeing, WA

10:31 AM PDT on September 26, 2017 (GMT -0700)
Boeing Field-King County International

Weather History for KBFI - January, 2013

Change the Weather History Date:

Thursday, January 24, 2013

  Actual Average Record
Temperature  
Mean Temperature 42 °F -  
Max Temperature 46 °F 45 °F 62 °F (2015)
Min Temperature 37 °F 35 °F 10 °F (1950)
Degree Days  
Heating Degree Days 24    
Moisture  
Dew Point 37 °F    
Average Humidity 79    
Maximum Humidity 89    
Minimum Humidity 59    
Precipitation  
Precipitation 0.16 in - - ()
Sea Level Pressure  
Sea Level Pressure 30.14 in    
Wind  
Wind Speed 5 mph (SE)    
Max Wind Speed 8 mph    
Max Gust Speed -    
Visibility 9 miles    
Events Rain    
Averages and records for this station are not official NWS values.
T = Trace of Precipitation, MM = Missing Value Source: NWS Daily Summary

Daily Weather History Graph

Daily Weather History Graph

Search for Another Location

Airport or City:

Trip Planner

Search our weather history database for the weather conditions in past years. The results will help you decide how hot, cold, wet, or windy it might be!

Date:

Astronomy

Jan. 24, 2013 Rise Set
Actual Time 7:44 AM PST 4:58 PM PST
Civil Twilight 7:10 AM PST 5:32 PM PST
Nautical Twilight 6:33 AM PST 6:10 PM PST
Astronomical Twilight 5:56 AM PST 6:46 PM PST
Moon 3:03 PM PST (1/24) 5:48 AM PST (1/24)
Length of Visible Light 10h 21m
Length of Day
9h 14m
Waxing Gibbous, 95% of the Moon is Illuminated
Jan 24
Waxing Gibbous
Jan 26
Full
Feb 3
Last Quarter
Feb 9
New
Feb 17
First Quarter

Hourly Weather History & Observations

Time (PST) Temp. Windchill Dew Point Humidity Pressure Visibility Wind Dir Wind Speed Gust Speed Precip Events Conditions
12:00 AM 44.6 °F 42.2 °F 39.2 °F 81% 30.14 in 10.0 mi South 4.6 mph - N/A   Overcast
12:53 AM 44.1 °F 39.5 °F 37.9 °F 79% 30.16 in 10.0 mi SSE 8.1 mph - N/A   Overcast
1:29 AM 42.8 °F 39.3 °F 37.4 °F 81% 30.17 in 10.0 mi SSE 5.8 mph - N/A   Overcast
1:37 AM 44.6 °F 41.4 °F 37.4 °F 76% 30.18 in 10.0 mi SSE 5.8 mph - N/A   Overcast
1:53 AM 44.1 °F 39.5 °F 37.9 °F 79% 30.18 in 10.0 mi SSE 8.1 mph - N/A   Overcast
2:08 AM 42.8 °F 38.0 °F 37.4 °F 81% 30.19 in 10.0 mi SE 8.1 mph - N/A   Overcast
2:53 AM 42.1 °F 37.7 °F 37.0 °F 82% 30.19 in 10.0 mi SE 6.9 mph - N/A   Overcast
3:53 AM 42.1 °F 37.7 °F 37.0 °F 82% 30.20 in 10.0 mi SE 6.9 mph - N/A   Overcast
4:53 AM 39.9 °F 35.8 °F 36.0 °F 86% 30.19 in 10.0 mi SE 5.8 mph - N/A   Overcast
5:31 AM 42.8 °F - 35.6 °F 76% 30.20 in 10.0 mi Calm Calm - N/A   Overcast
5:53 AM 39.9 °F - 36.0 °F 86% 30.21 in 10.0 mi Calm Calm - N/A   Overcast
6:53 AM 39.0 °F 35.7 °F 35.1 °F 86% 30.20 in 10.0 mi ESE 4.6 mph - N/A   Overcast
7:53 AM 37.0 °F 34.5 °F 33.1 °F 86% 30.21 in 10.0 mi SE 3.5 mph - N/A   Mostly Cloudy
8:53 AM 39.0 °F - 34.0 °F 82% 30.19 in 10.0 mi Calm Calm - N/A   Scattered Clouds
9:53 AM 42.1 °F 40.2 °F 34.0 °F 73% 30.19 in 10.0 mi SE 3.5 mph - N/A   Scattered Clouds
10:53 AM 44.1 °F 42.5 °F 34.0 °F 68% 30.17 in 10.0 mi SE 3.5 mph - N/A   Clear
11:53 AM 46.0 °F - 35.1 °F 66% 30.15 in 10.0 mi Calm Calm - N/A   Overcast
12:53 PM 46.9 °F - 35.1 °F 63% 30.12 in 10.0 mi SSE 5.8 mph - N/A   Scattered Clouds
1:53 PM 46.9 °F - 34.0 °F 61% 30.11 in 10.0 mi SSE 5.8 mph - N/A   Overcast
2:53 PM 46.9 °F - 33.1 °F 59% 30.09 in 10.0 mi SSE 3.5 mph - N/A   Overcast
3:53 PM 46.0 °F 42.5 °F 35.1 °F 66% 30.09 in 10.0 mi WSW 6.9 mph - N/A   Overcast
4:53 PM 45.0 °F - 37.0 °F 74% 30.10 in 9.0 mi Calm Calm - 0.01 in Rain Light Rain
5:53 PM 44.1 °F - 37.9 °F 79% 30.10 in 9.0 mi Calm Calm - 0.06 in Rain Light Rain
6:53 PM 43.0 °F 39.5 °F 39.0 °F 86% 30.09 in 6.0 mi SE 5.8 mph - 0.05 in Rain Light Rain
7:53 PM 43.0 °F 40.3 °F 39.9 °F 89% 30.09 in 7.0 mi SE 4.6 mph - 0.01 in Rain Light Rain
8:53 PM 43.0 °F - 39.9 °F 89% 30.08 in 10.0 mi Calm Calm - 0.01 in   Overcast
9:53 PM 43.0 °F 41.3 °F 39.9 °F 89% 30.07 in 10.0 mi SE 3.5 mph - N/A   Overcast
10:53 PM 43.0 °F 38.8 °F 39.0 °F 86% 30.06 in 10.0 mi SE 6.9 mph - 0.01 in   Overcast
11:27 PM 42.8 °F 38.0 °F 39.2 °F 87% 30.07 in 4.0 mi SE 8.1 mph - 0.00 in Rain Light Rain
11:53 PM 43.0 °F 40.3 °F 39.9 °F 89% 30.07 in 3.0 mi SSE 4.6 mph - 0.01 in Rain Light Rain